ONEWEB-0113

Last updated on Sun Apr 25 2021 00:02:03 GMT+0000 (Coordinated Universal Time)

1 48050U 21025J 21114.58336806 -.01085326 00000-0 -49513-1 0 9995 2 48050 87.4196 339.3547 0010155 133.3324 16.5769 15.23632343 1781

Satellite not in orbit